GW6561 Weather Reports


time (UTC)temp
C
wind
direction
speed
KPH
gust
KPH
rain 1hr
cm
rain 24hr
cm
rain mn
cm
humidity
%
barometer
mb
20260505140605 22 287 9.7 46.7 0.00 0.00 0.00 49 1012.8
20260505125018 18 262 41.8 59.5 0.00 0.00 0.00 60 1013.6
20260505124515 18 220 51.5 51.5 0.00 0.00 0.00 61 1013.3
20260505124011 17 277 24.1 37.0 0.00 0.00 0.00 64 1013.6
20260505123508 17 245 11.3 37.0 0.00 0.00 0.00 64 1013.7
20260505123004 17 236 16.1 45.1 0.00 0.00 0.00 66 1013.6
20260505122501 17 227 17.7 41.8 0.00 0.00 0.00 66 1013.6
20260505121958 17 219 33.8 45.1 0.00 0.00 0.00 65 1013.3
20260505121455 17 214 48.3 48.3 0.00 0.00 0.00 64 1013.5
20260505120950 18 233 16.1 45.1 0.00 0.00 0.00 62 1013.4
20260505120447 17 65 0.0 25.7 0.00 0.00 0.00 64 1013.3
20260505115946 17 106 11.3 19.3 0.00 0.00 0.00 64 1013.4
20260505115443 16 201 19.3 24.1 0.00 0.00 0.00 67 1013.2
20260505114941 16 118 0.0 9.7 0.00 0.00 0.00 67 1013.3
20260505114437 16 226 0.0 9.7 0.00 0.00 0.00 69 1013.1
20260505113934 16 201 0.0 0.0 0.00 0.00 0.00 70 1012.9
20260505113425 15 43 0.0 0.0 0.00 0.00 0.00 70 1012.9
20260505112921 16 150 0.0 0.0 0.00 0.00 0.00 69 1012.9
20260505112419 15 18 0.0 0.0 0.00 0.00 0.00 73 1013.1
20260505111914 15 251 0.0 0.0 0.00 0.00 0.00 74 1012.9
20260505111414 14 233 0.0 0.0 0.00 0.00 0.00 74 1013.0
20260505110911 13 221 12.9 12.9 0.00 0.00 0.00 78 1012.8
20260505110408 12 226 0.0 0.0 0.00 0.00 0.00 80 1012.7
20260505101839 11 36 9.7 14.5 0.00 0.00 0.00 83 1012.5
20260505101334 11 83 0.0 9.7 0.00 0.00 0.00 85 1012.6
20260505100830 11 156 0.0 9.7 0.00 0.00 0.00 83 1012.2
20260505100327 11 270 0.0 0.0 0.00 0.00 0.00 81 1012.3
20260505095822 11 282 0.0 11.3 0.00 0.00 0.00 81 1012.1
20260505095320 11 268 9.7 12.9 0.00 0.00 0.00 82 1012.1
20260505094815 11 132 0.0 0.0 0.00 0.00 0.00 82 1012.2
20260505094313 11 123 0.0 11.3 0.00 0.00 0.00 82 1012.1
20260505093808 12 60 0.0 9.7 0.00 0.00 0.00 80 1012.1
20260505093307 11 34 0.0 9.7 0.00 0.00 0.00 81 1012.2
20260505092803 11 124 0.0 16.1 0.00 0.00 0.00 82 1012.1
20260505092304 12 118 0.0 11.3 0.00 0.00 0.00 80 1012.1
20260505091758 12 348 0.0 0.0 0.00 0.00 0.00 79 1012.1
20260505091256 11 26 0.0 0.0 0.00 0.00 0.00 80 1012.3
20260505090754 11 260 9.7 9.7 0.00 0.00 0.00 81 1012.2
20260505090252 11 68 0.0 9.7 0.00 0.00 0.00 80 1012.2
20260505085749 12 64 0.0 9.7 0.00 0.00 0.00 80 1012.1
20260505085247 12 47 0.0 0.0 0.00 0.00 0.00 80 1012.2
20260505084744 12 75 0.0 9.7 0.00 0.00 0.00 80 1012.0
20260505084243 12 43 0.0 11.3 0.00 0.00 0.00 80 1012.0
20260505083739 12 290 0.0 12.9 0.00 0.00 0.00 79 1012.1
20260505083236 12 150 0.0 0.0 0.00 0.00 0.00 79 1012.0
20260505082732 12 251 0.0 0.0 0.00 0.00 0.00 78 1011.8
20260505082230 12 251 0.0 0.0 0.00 0.00 0.00 78 1012.0
20260505081725 12 273 0.0 19.3 0.00 0.00 0.00 78 1011.8
20260505081223 12 70 0.0 11.3 0.00 0.00 0.00 79 1011.9
20260505080720 12 145 0.0 9.7 0.00 0.00 0.00 78 1011.9
20260505080215 12 43 9.7 11.3 0.00 0.00 0.00 77 1012.0
20260505075711 12 251 0.0 14.5 0.00 0.00 0.00 76 1012.0
20260505075209 13 32 0.0 0.0 0.00 0.00 0.00 76 1012.1
20260505074706 13 311 0.0 14.5 0.00 0.00 0.00 75 1011.9
20260505074203 13 76 0.0 11.3 0.00 0.00 0.00 75 1011.7
20260505073700 13 358 0.0 12.9 0.00 0.00 0.00 75 1011.8
20260505073158 13 51 0.0 11.3 0.00 0.00 0.00 74 1011.8
20260505072654 13 83 9.7 14.5 0.00 0.00 0.00 72 1011.7
20260505072150 13 145 0.0 11.3 0.00 0.00 0.00 74 1011.6
20260505071646 13 163 0.0 11.3 0.00 0.00 0.00 75 1011.7
20260505071144 13 71 0.0 12.9 0.00 0.00 0.00 73 1011.6
20260505070641 13 34 0.0 12.9 0.00 0.00 0.00 72 1011.8
20260505070137 13 71 0.0 0.0 0.00 0.00 0.00 72 1011.8
20260505065633 13 25 0.0 0.0 0.00 0.00 0.00 72 1011.7
20260505065130 13 245 0.0 0.0 0.00 0.00 0.00 72 1012.0
20260505064627 13 97 0.0 0.0 0.00 0.00 0.00 73 1011.8
20260505064125 13 58 0.0 0.0 0.00 0.00 0.00 73 1012.0
20260505063622 13 245 0.0 0.0 0.00 0.00 0.00 74 1012.0
20260505063118 13 230 0.0 11.3 0.00 0.00 0.00 73 1012.1
20260505062615 13 214 9.7 9.7 0.00 0.00 0.00 73 1012.2
20260505062112 13 343 0.0 0.0 0.00 0.00 0.00 75 1012.0
20260505061609 13 245 0.0 11.3 0.00 0.00 0.00 74 1012.2
20260505061107 14 238 0.0 0.0 0.00 0.00 0.00 72 1012.1
20260505060604 14 245 0.0 11.3 0.00 0.00 0.00 72 1012.0
20260505055556 14 40 0.0 0.0 0.00 0.00 0.00 70 1012.1
20260505055053 14 147 0.0 0.0 0.00 0.00 0.00 70 1012.2
20260505054550 14 38 0.0 0.0 0.00 0.00 0.00 69 1012.2
20260505054049 14 38 0.0 9.7 0.00 0.00 0.00 69 1012.2
20260505053545 14 245 0.0 0.0 0.00 0.00 0.00 70 1012.2
20260505053042 14 7 0.0 0.0 0.00 0.00 0.00 70 1011.9
20260505052539 14 251 0.0 0.0 0.00 0.00 0.00 71 1011.9
20260505052037 14 241 0.0 14.5 0.00 0.00 0.00 68 1011.9
20260505051533 13 220 19.3 19.3 0.00 0.00 0.00 69 1011.9
20260505051031 13 245 0.0 9.7 0.00 0.00 0.00 70 1012.0
20260505050529 13 235 0.0 9.7 0.00 0.00 0.00 69 1012.0
20260505041457 15 212 25.7 29.0 0.00 0.00 0.00 63 1012.1
20260505040954 13 211 16.1 19.3 0.00 0.00 0.00 65 1012.2
20260505040451 14 241 9.7 9.7 0.00 0.00 0.00 68 1011.8
20260505035948 14 193 0.0 11.3 0.00 0.00 0.00 65 1012.1
20260505035444 15 251 0.0 0.0 0.00 0.00 0.00 62 1012.0
20260505034942 15 267 0.0 9.7 0.00 0.00 0.00 60 1012.0
20260505034438 15 245 0.0 9.7 0.00 0.00 0.00 60 1012.0
20260505033935 15 188 0.0 0.0 0.00 0.00 0.00 59 1012.0
20260505033432 16 243 9.7 14.5 0.00 0.00 0.00 56 1011.9
20260505032930 16 209 12.9 20.9 0.00 0.00 0.00 55 1011.8
20260505032427 16 210 17.7 35.4 0.00 0.00 0.00 55 1011.7
20260505031923 16 229 29.0 30.6 0.00 0.00 0.00 54 1011.8
20260505031420 16 213 25.7 29.0 0.00 0.00 0.00 54 1011.9
20260505030917 16 208 17.7 40.2 0.00 0.00 0.00 53 1011.7
20260505030413 16 216 20.9 35.4 0.00 0.00 0.00 54 1011.8
20260505025909 16 222 37.0 37.0 0.00 0.00 0.00 54 1011.6
20260505025406 16 207 27.4 56.3 0.00 0.00 0.00 53 1011.7
20260505024905 16 216 25.7 33.8 0.00 0.00 0.00 53 1011.8
20260505024402 16 241 16.1 45.1 0.00 0.00 0.00 52 1011.7
20260505023859 16 197 17.7 37.0 0.00 0.00 0.00 52 1011.7
20260505023356 16 218 33.8 35.4 0.00 0.00 0.00 52 1011.9
20260505022853 17 220 25.7 30.6 0.00 0.00 0.00 52 1011.8
20260505022350 17 216 37.0 37.0 0.00 0.00 0.00 50 1011.8
20260505021848 16 222 27.4 35.4 0.00 0.00 0.00 51 1011.9
20260505021344 17 235 24.1 35.4 0.00 0.00 0.00 51 1011.9
20260505020840 17 204 20.9 46.7 0.00 0.00 0.00 50 1011.9
20260505020335 17 234 25.7 43.5 0.00 0.00 0.00 50 1011.8
20260505015832 17 214 27.4 33.8 0.00 0.00 0.00 50 1011.7
20260505015330 17 218 27.4 33.8 0.00 0.00 0.00 50 1011.9
20260505014827 17 212 20.9 43.5 0.00 0.00 0.00 50 1012.0
20260505014324 17 214 30.6 37.0 0.00 0.00 0.00 50 1012.2
20260505013820 17 214 35.4 40.2 0.00 0.00 0.00 49 1012.1
20260505013318 17 213 24.1 25.7 0.00 0.00 0.00 49 1012.1
20260505012816 17 221 19.3 40.2 0.00 0.00 0.00 49 1011.9
20260505012313 17 226 24.1 30.6 0.00 0.00 0.00 48 1012.0
20260505011809 17 239 20.9 33.8 0.00 0.00 0.00 48 1011.8
20260505011306 17 243 27.4 40.2 0.00 0.00 0.00 47 1011.6
20260505010802 17 236 25.7 33.8 0.00 0.00 0.00 48 1011.5
20260505010258 17 259 19.3 40.2 0.00 0.00 0.00 47 1011.4
20260505005754 17 215 35.4 49.9 0.00 0.00 0.00 46 1011.3
20260505005252 17 217 29.0 30.6 0.00 0.00 0.00 46 1011.4
20260505004749 18 219 32.2 40.2 0.00 0.00 0.00 46 1011.5
20260505004245 18 208 29.0 35.4 0.00 0.00 0.00 46 1011.5
20260505003742 18 229 33.8 46.7 0.00 0.00 0.00 45 1011.3
20260505003240 18 201 30.6 43.5 0.00 0.00 0.00 45 1011.4
20260505002736 18 217 25.7 40.2 0.00 0.00 0.00 46 1011.5
20260505002233 18 190 27.4 48.3 0.00 0.00 0.00 45 1011.3
20260505001731 18 201 33.8 62.8 0.00 0.00 0.00 44 1011.1
20260505001228 18 218 35.4 57.9 0.00 0.00 0.00 44 1011.2
20260505000725 18 221 40.2 45.1 0.00 0.00 0.00 44 1011.1
20260505000223 18 220 32.2 45.1 0.00 0.00 0.00 45 1011.1
20260504235719 19 220 30.6 66.0 0.00 0.00 0.00 44 1011.0
20260504235215 19 225 49.9 69.2 0.00 0.00 0.00 44 1011.1
20260504234713 19 210 33.8 46.7 0.00 0.00 0.00 43 1010.9
20260504234210 19 203 29.0 54.7 0.00 0.00 0.00 44 1010.9
20260504233706 20 220 48.3 70.8 0.00 0.00 0.00 43 1011.0
20260504233202 20 210 62.8 85.3 0.00 0.00 0.00 42 1010.8
20260504232700 20 251 43.5 70.8 0.00 0.00 0.00 42 1010.7
20260504232156 20 195 37.0 93.3 0.00 0.00 0.00 42 1010.7
20260504231653 20 225 45.1 66.0 0.00 0.00 0.00 42 1011.0
20260504231149 20 212 40.2 66.0 0.00 0.00 0.00 42 1010.9
20260504230646 20 251 48.3 77.2 0.00 0.00 0.00 42 1011.0
20260504230145 20 205 29.0 69.2 0.00 0.00 0.00 43 1010.8
20260504225643 20 208 46.7 62.8 0.00 0.00 0.00 41 1010.9
20260504225138 21 216 59.5 75.6 0.00 0.00 0.00 41 1010.8
20260504224635 21 228 51.5 70.8 0.00 0.00 0.00 39 1010.9
20260504224132 21 214 33.8 49.9 0.00 0.00 0.00 37 1010.8
20260504223629 21 198 20.9 57.9 0.00 0.00 0.00 40 1010.9
20260504223125 21 260 24.1 49.9 0.00 0.00 0.00 39 1010.9
20260504222622 21 238 29.0 64.4 0.00 0.00 0.00 37 1010.8
20260504222119 21 227 32.2 75.6 0.00 0.00 0.00 38 1010.9
20260504221616 21 246 33.8 37.0 0.00 0.00 0.00 39 1010.8
20260504221113 21 261 49.9 72.4 0.00 0.00 0.00 36 1010.8
20260504220609 21 214 35.4 66.0 0.00 0.00 0.00 36 1010.9
20260504220108 21 228 19.3 74.0 0.00 0.00 0.00 35 1010.9
20260504215603 22 223 27.4 75.6 0.00 0.00 0.00 37 1010.9
20260504215101 22 230 35.4 61.2 0.00 0.00 0.00 37 1010.9
20260504214557 21 270 20.9 64.4 0.00 0.00 0.00 36 1010.9
20260504214053 22 214 32.2 37.0 0.00 0.00 0.00 38 1011.0
20260504213549 22 261 19.3 80.5 0.00 0.00 0.00 35 1011.0
20260504213047 22 223 35.4 59.5 0.00 0.00 0.00 36 1011.0
20260504212542 22 215 40.2 75.6 0.00 0.00 0.00 37 1010.9
20260504212040 22 213 49.9 90.1 0.00 0.00 0.00 37 1011.0
20260504211537 22 256 20.9 27.4 0.00 0.00 0.00 37 1010.9
20260504211034 22 211 48.3 82.1 0.00 0.00 0.00 36 1010.9
20260504210531 22 227 46.7 70.8 0.00 0.00 0.00 37 1011.0
20260504210027 22 255 41.8 66.0 0.00 0.00 0.00 35 1011.0
20260504205526 22 254 14.5 48.3 0.00 0.00 0.00 36 1011.0
20260504205023 22 226 33.8 57.9 0.00 0.00 0.00 35 1011.0
20260504204521 22 255 25.7 35.4 0.00 0.00 0.00 36 1011.1
20260504204020 22 193 0.0 40.2 0.00 0.00 0.00 35 1011.0
20260504203518 22 212 59.5 72.4 0.00 0.00 0.00 35 1011.3
20260504203015 22 206 17.7 46.7 0.00 0.00 0.00 41 1011.3
20260504202510 22 235 17.7 37.0 0.00 0.00 0.00 37 1011.2
20260504202007 22 215 24.1 41.8 0.00 0.00 0.00 39 1011.4
20260504201504 22 235 35.4 45.1 0.00 0.00 0.00 37 1011.3
20260504201002 22 290 0.0 20.9 0.00 0.00 0.00 40 1011.6
20260504200458 21 205 35.4 72.4 0.00 0.00 0.00 40 1011.4
20260504195954 21 225 30.6 59.5 0.00 0.00 0.00 38 1011.5
20260504195451 21 266 12.9 75.6 0.00 0.00 0.00 36 1011.7
20260504194947 21 220 46.7 57.9 0.00 0.00 0.00 37 1011.7
20260504194443 21 226 40.2 59.5 0.00 0.00 0.00 41 1011.8
20260504193939 21 201 17.7 41.8 0.00 0.00 0.00 36 1011.9
20260504193437 22 245 45.1 77.2 0.00 0.00 0.00 35 1012.1
20260504192935 21 227 27.4 49.9 0.00 0.00 0.00 40 1012.2
20260504192432 21 248 20.9 32.2 0.00 0.00 0.00 36 1012.3
20260504191931 21 235 25.7 62.8 0.00 0.00 0.00 37 1012.4
20260504191429 21 197 48.3 74.0 0.00 0.00 0.00 36 1012.3
20260504190924 21 226 43.5 72.4 0.00 0.00 0.00 39 1012.4
20260504190420 21 47 16.1 45.1 0.00 0.00 0.00 37 1012.4
20260504185917 21 250 20.9 30.6 0.00 0.00 0.00 37 1012.3
20260504185414 21 189 32.2 70.8 0.00 0.00 0.00 37 1012.4
20260504184910 21 236 48.3 56.3 0.00 0.00 0.00 38 1012.5
20260504184406 21 206 66.0 77.2 0.00 0.00 0.00 37 1012.6
20260504183902 21 218 54.7 62.8 0.00 0.00 0.00 36 1012.8
20260504183359 21 200 24.1 72.4 0.00 0.00 0.00 37 1012.7
20260504182857 22 209 61.2 72.4 0.00 0.00 0.00 37 1012.8
20260504182354 22 270 25.7 40.2 0.00 0.00 0.00 34 1012.9
20260504181850 22 258 16.1 25.7 0.00 0.00 0.00 33 1013.0
20260504181348 22 277 11.3 35.4 0.00 0.00 0.00 37 1012.9
20260504180847 22 210 29.0 51.5 0.00 0.00 0.00 38 1013.1
20260504180345 22 218 24.1 51.5 0.00 0.00 0.00 34 1013.2
20260504175843 22 176 41.8 48.3 0.00 0.00 0.00 35 1013.1
20260504175339 21 223 43.5 66.0 0.00 0.00 0.00 39 1013.3
20260504174838 22 250 9.7 70.8 0.00 0.00 0.00 36 1013.0
20260504174335 21 206 56.3 59.5 0.00 0.00 0.00 38 1013.2
20260504173832 22 221 57.9 95.0 0.00 0.00 0.00 35 1013.3
20260504173328 21 247 11.3 37.0 0.00 0.00 0.00 40 1013.2
20260504172825 22 182 61.2 75.6 0.00 0.00 0.00 34 1013.5
20260504172322 22 255 9.7 27.4 0.00 0.00 0.00 37 1013.7
20260504171818 21 245 27.4 49.9 0.00 0.00 0.00 41 1013.9
20260504171315 21 259 24.1 37.0 0.00 0.00 0.00 36 1013.7
20260504170812 22 204 48.3 56.3 0.00 0.00 0.00 34 1014.0
20260504170309 22 207 20.9 27.4 0.00 0.00 0.00 36 1013.9
20260504160227 20 202 24.1 46.7 0.00 0.00 0.00 41 1014.6
20260504150652 17 200 20.9 41.8 0.00 0.00 0.00 40 1015.6
20260504150149 17 215 25.7 59.5 0.00 0.00 0.00 40 1015.5